, AK

(GMT )
Northway

Weather History for PAOR - May, 2013

Change the Weather History Date:

Friday, May 3, 2013

  Actual Average Record
Temperature  
Mean Temperature 36 °F -  
Max Temperature 43 °F 51 °F 66 °F (2014)
Min Temperature 30 °F 27 °F 10 °F (2002)
Degree Days  
Heating Degree Days 28    
Moisture  
Dew Point 30 °F    
Average Humidity 78    
Maximum Humidity 92    
Minimum Humidity 60    
Precipitation  
Precipitation 0.00 in - - ()
Snow  
Snow 0.00 in - - ()
Snow Depth 10.00 in    
Sea Level Pressure  
Sea Level Pressure 29.90 in    
Wind  
Wind Speed 1 mph (NE)    
Max Wind Speed 6 mph    
Max Gust Speed -    
Visibility 10 miles    
Events Rain    
Averages and records for this station are not official NWS values.
T = Trace of Precipitation, MM = Missing Value Source: NWS Daily Summary

Daily Weather History Graph

Daily Weather History Graph

Search for Another Location

Airport or City:

Trip Planner

Search our weather history database for the weather conditions in past years. The results will help you decide how hot, cold, wet, or windy it might be!

Date:

Astronomy

May. 03, 2013 Rise Set
Actual Time 5:00 AM AKDT 9:50 PM AKDT
Civil Twilight 3:54 AM AKDT 10:57 PM AKDT
Nautical Twilight 1:57 AM AKDT 12:52 AM AKDT
Astronomical Twilight Sun does not rise Sun does not rise
Moon 3:31 AM AKDT (5/3) 1:59 PM AKDT (5/3)
Length of Visible Light 19h 03m
Length of Day
16h 50m
Waning Crescent, 35% of the Moon is Illuminated
May 3
Waning Crescent
May 9
New
May 17
First Quarter
May 24
Full
May 31
Last Quarter

Hourly Weather History & Observations

Time (AKDT) Temp. Windchill Dew Point Humidity Pressure Visibility Wind Dir Wind Speed Gust Speed Precip Events Conditions
12:53 AM 30.0 °F - 28.0 °F 92% 29.95 in 10.0 mi Calm Calm - N/A   Mostly Cloudy
1:53 AM 30.0 °F 26.5 °F 28.0 °F 92% 29.96 in 10.0 mi NNE 3.5 mph - N/A   Mostly Cloudy
2:53 AM 30.9 °F - 28.9 °F 92% 29.97 in 10.0 mi Calm Calm - N/A   Mostly Cloudy
3:53 AM 30.9 °F 27.5 °F 28.9 °F 92% 29.95 in 10.0 mi East 3.5 mph - N/A   Mostly Cloudy
4:53 AM 32.0 °F - 28.9 °F 88% 29.94 in 10.0 mi Calm Calm - N/A   Mostly Cloudy
5:53 AM 32.0 °F - 28.9 °F 88% 29.92 in 10.0 mi Calm Calm - N/A   Mostly Cloudy
6:53 AM 32.0 °F - 28.9 °F 88% 29.91 in 10.0 mi Calm Calm - N/A   Overcast
7:53 AM 33.1 °F - 30.0 °F 89% 29.90 in 10.0 mi Calm Calm - N/A   Overcast
8:53 AM 34.0 °F 31.0 °F 30.0 °F 85% 29.90 in 10.0 mi ENE 3.5 mph - N/A   Overcast
9:53 AM 36.0 °F - 30.9 °F 82% 29.89 in 10.0 mi Calm Calm - N/A   Overcast
10:53 AM 37.9 °F 35.5 °F 30.0 °F 73% 29.90 in 10.0 mi Variable 3.5 mph - N/A   Overcast
11:53 AM 37.9 °F - 30.9 °F 76% 29.89 in 10.0 mi Calm Calm - N/A   Overcast
12:53 PM 41.0 °F - 30.0 °F 65% 29.90 in 10.0 mi Calm Calm - N/A   Overcast
1:53 PM 42.1 °F - 30.9 °F 65% 29.91 in 10.0 mi Calm Calm - N/A   Overcast
2:53 PM 43.0 °F - 30.0 °F 60% 29.90 in 10.0 mi Calm Calm - N/A   Overcast
3:53 PM 41.0 °F 39.0 °F 30.9 °F 67% 29.90 in 10.0 mi Variable 3.5 mph - N/A   Overcast
4:53 PM 39.9 °F 37.8 °F 30.9 °F 70% 29.88 in 10.0 mi ENE 3.5 mph - N/A   Overcast
5:53 PM 41.0 °F - 30.9 °F 67% 29.88 in 10.0 mi Calm Calm - N/A   Overcast
6:53 PM 42.1 °F - 30.9 °F 65% 29.87 in 10.0 mi Calm Calm - N/A   Overcast
7:53 PM 39.9 °F - 30.9 °F 70% 29.88 in 10.0 mi Calm Calm - N/A   Overcast
8:53 PM 37.9 °F - 30.9 °F 76% 29.88 in 10.0 mi Calm Calm - N/A   Overcast
9:53 PM 37.0 °F - 32.0 °F 82% 29.88 in 10.0 mi Calm Calm - 0.00 in Rain Light Rain
10:53 PM 39.9 °F 35.8 °F 32.0 °F 73% 29.87 in 10.0 mi WNW 5.8 mph - 0.00 in Rain Light Rain
11:53 PM 39.0 °F - 32.0 °F 76% 29.86 in 10.0 mi Calm Calm - 0.00 in   Overcast